KC9NPJ-13 Weather Reports


Display with metric or nautical units.
time (UTC)temp
F
wind
direction
speed
MPH
gust
MPH
rain 1hr
in
rain 24hr
in
rain mn
in
humidity
%
barometer
mb
20260504050407 56 258 0.0 0.0 0.00 0.01 0.01 69 1010.9
20260504045907 56 192 0.0 0.0 0.00 0.01 0.01 68 1011.0
20260504045407 56 252 0.0 1.0 0.00 0.01 0.01 67 1011.0
20260504044907 56 187 0.0 1.0 0.00 0.01 0.01 66 1011.2
20260504044407 56 164 0.0 1.0 0.00 0.01 0.01 66 1011.2
20260504043907 56 255 0.0 1.0 0.00 0.01 0.01 66 1011.3
20260504043407 57 257 0.0 1.0 0.00 0.01 0.01 66 1011.2
20260504042907 57 250 0.0 1.0 0.00 0.01 0.01 65 1011.4
20260504042407 57 248 0.0 1.0 0.00 0.01 0.01 65 1011.5
20260504041907 57 206 0.0 1.0 0.00 0.01 0.01 65 1011.5
20260504041407 57 261 0.0 1.0 0.00 0.01 0.01 65 1011.6
20260504040907 58 259 0.0 1.0 0.00 0.01 0.01 65 1011.7
20260504040407 58 169 0.0 1.0 0.00 0.01 0.01 65 1011.8
20260504035907 58 188 0.0 1.0 0.00 0.01 0.01 66 1011.8
20260504035407 58 157 0.0 1.0 0.00 0.01 0.01 65 1011.9
20260504034907 58 165 0.0 1.0 0.00 0.01 0.01 65 1011.8
20260504034407 58 179 0.0 1.0 0.00 0.01 0.01 65 1011.8
20260504033907 58 178 0.0 1.0 0.00 0.01 0.01 63 1012.0
20260504033407 58 169 0.0 1.0 0.00 0.01 0.01 63 1011.9
20260504032907 58 180 0.0 2.0 0.00 0.01 0.01 62 1011.8
20260504032407 58 187 0.0 1.0 0.00 0.01 0.01 62 1011.8
20260504031907 59 235 0.0 2.0 0.00 0.01 0.01 62 1012.0
20260504031407 59 227 0.0 2.0 0.00 0.01 0.01 61 1011.9
20260504030907 59 188 1.0 3.0 0.00 0.01 0.01 61 1011.9
20260504030407 59 264 2.0 4.0 0.00 0.01 0.01 60 1011.9
20260504025907 59 246 1.0 4.0 0.00 0.01 0.01 59 1011.9
20260504025407 59 265 1.0 5.0 0.00 0.01 0.01 59 1011.9
20260504024907 59 254 2.0 4.0 0.00 0.01 0.01 59 1011.9
20260504024407 60 264 1.0 4.0 0.00 0.01 0.01 58 1012.0
20260504023907 59 254 1.0 3.0 0.00 0.01 0.01 58 1012.0
20260504023407 59 245 1.0 2.0 0.00 0.01 0.01 59 1012.1
20260504022907 60 230 0.0 3.0 0.00 0.01 0.01 59 1012.1
20260504022407 60 248 0.0 1.0 0.00 0.01 0.01 59 1012.2
20260504021907 60 228 1.0 3.0 0.00 0.01 0.01 57 1012.3
20260504021407 60 246 1.0 2.0 0.00 0.01 0.01 57 1012.2
20260504020907 61 252 0.0 2.0 0.00 0.01 0.01 56 1012.2
20260504020407 61 255 1.0 2.0 0.00 0.01 0.01 56 1012.1
20260504015907 61 228 1.0 4.0 0.00 0.01 0.01 56 1011.8
20260504015407 61 256 2.0 5.0 0.00 0.01 0.01 55 1011.9
20260504014907 61 227 2.0 6.0 0.00 0.01 0.01 55 1011.8
20260504014407 62 221 2.0 4.0 0.00 0.01 0.01 55 1011.9
20260504013907 62 244 2.0 7.0 0.00 0.01 0.01 54 1011.9
20260504013407 62 239 2.0 5.0 0.00 0.01 0.01 54 1012.0
20260504012907 62 255 2.0 6.0 0.00 0.01 0.01 54 1011.8
20260504012407 62 253 1.0 4.0 0.00 0.01 0.01 54 1011.9
20260504011907 63 246 2.0 5.0 0.00 0.01 0.01 53 1011.9
20260504011407 63 223 2.0 4.0 0.00 0.01 0.01 51 1012.0
20260504010908 63 260 2.0 5.0 0.00 0.01 0.01 51 1012.3
20260504010408 63 242 2.0 7.0 0.00 0.01 0.01 51 1012.2
20260504005908 63 230 2.0 5.0 0.00 0.01 0.01 50 1012.1
20260504005408 64 257 2.0 4.0 0.00 0.01 0.01 50 1012.2
20260504004908 64 196 2.0 6.0 0.00 0.01 0.01 49 1012.3
20260504004408 64 252 2.0 5.0 0.00 0.01 0.01 49 1012.2
20260504003908 65 254 3.0 5.0 0.00 0.01 0.01 49 1012.2
20260504003408 65 254 3.0 7.0 0.00 0.01 0.01 49 1012.4
20260504002908 65 263 3.0 5.0 0.00 0.01 0.01 48 1012.4
20260504002408 65 310 4.0 9.0 0.00 0.01 0.01 48 1012.7
20260504001908 66 225 4.0 8.0 0.00 0.01 0.01 47 1012.7
20260504001408 66 252 5.0 9.0 0.00 0.01 0.01 47 1012.6
20260504000908 66 239 5.0 11.0 0.00 0.01 0.01 46 1012.4
20260504000409 66 221 5.0 9.0 0.00 0.01 0.01 46 1012.6
20260503235908 66 258 6.0 14.0 0.00 0.01 0.01 45 1012.6
20260503235408 67 263 6.0 14.0 0.00 0.01 0.01 45 1012.5
20260503234908 67 260 7.0 11.0 0.00 0.01 0.01 44 1012.5
20260503234408 67 213 7.0 14.0 0.00 0.01 0.01 45 1012.5
20260503233908 67 267 7.0 14.0 0.00 0.01 0.01 44 1012.6
20260503233408 67 244 7.0 14.0 0.00 0.01 0.01 45 1012.6
20260503232908 67 236 8.0 15.0 0.00 0.01 0.01 45 1012.7
20260503232408 67 244 6.0 14.0 0.00 0.01 0.01 45 1012.5
20260503231908 67 229 6.0 10.0 0.00 0.01 0.01 46 1012.5
20260503231408 67 257 8.0 12.0 0.00 0.01 0.01 45 1012.6
20260503230908 67 244 8.0 16.0 0.00 0.01 0.01 45 1012.4
20260503230408 67 287 8.0 16.0 0.00 0.01 0.01 44 1012.4
20260503225908 67 259 8.0 15.0 0.00 0.01 0.01 44 1012.4
20260503225408 67 238 9.0 15.0 0.00 0.01 0.01 44 1012.4
20260503224908 67 250 10.0 17.0 0.00 0.01 0.01 44 1012.4
20260503224408 67 240 9.0 17.0 0.00 0.01 0.01 42 1012.5
20260503223908 67 252 10.0 17.0 0.00 0.01 0.01 42 1012.5
20260503223408 68 228 10.0 26.0 0.00 0.01 0.01 42 1012.4
20260503222908 68 246 9.0 17.0 0.00 0.01 0.01 44 1012.5
20260503222408 68 261 10.0 16.0 0.00 0.01 0.01 43 1012.4
20260503221908 68 246 9.0 15.0 0.00 0.01 0.01 42 1012.7
20260503221408 68 225 9.0 17.0 0.00 0.01 0.01 42 1012.7
20260503220908 68 236 10.0 16.0 0.00 0.01 0.01 43 1012.8
20260503220408 68 259 11.0 18.0 0.00 0.01 0.01 42 1012.8
20260503215908 68 252 11.0 20.0 0.00 0.01 0.01 43 1012.9
20260503215408 68 241 10.0 20.0 0.00 0.01 0.01 44 1012.9
20260503214908 68 253 9.0 17.0 0.00 0.01 0.01 44 1012.9
20260503214408 68 265 9.0 19.0 0.00 0.01 0.01 44 1013.0
20260503213908 68 254 10.0 17.0 0.00 0.01 0.01 44 1013.1
20260503213408 68 265 10.0 22.0 0.00 0.01 0.01 43 1013.1
20260503212908 68 222 10.0 19.0 0.00 0.01 0.01 46 1013.5
20260503212408 68 281 10.0 18.0 0.00 0.01 0.01 45 1013.5
20260503211908 68 274 9.0 18.0 0.00 0.01 0.01 44 1013.5
20260503211408 68 226 9.0 18.0 0.00 0.01 0.01 47 1013.6
20260503210908 67 217 9.0 17.0 0.00 0.01 0.01 46 1013.8
20260503210408 68 261 9.0 15.0 0.00 0.01 0.01 48 1014.0
20260503205908 67 234 9.0 15.0 0.00 0.01 0.01 48 1014.1
20260503205408 67 271 9.0 15.0 0.00 0.01 0.01 48 1014.2
20260503204908 67 157 11.0 19.0 0.00 0.01 0.01 47 1014.2
20260503204408 67 251 11.0 19.0 0.00 0.01 0.01 43 1014.4
20260503203908 67 274 11.0 18.0 0.00 0.01 0.01 46 1014.4
20260503203408 67 218 10.0 19.0 0.00 0.01 0.01 45 1014.5
20260503202908 67 252 9.0 18.0 0.00 0.01 0.01 46 1014.6
20260503202408 67 275 9.0 19.0 0.00 0.01 0.01 46 1014.7
20260503201908 67 222 9.0 18.0 0.00 0.01 0.01 48 1014.8
20260503201408 67 230 9.0 14.0 0.00 0.01 0.01 48 1014.9
20260503200908 67 273 10.0 18.0 0.00 0.01 0.01 47 1015.1
20260503200408 67 242 10.0 18.0 0.00 0.01 0.01 49 1015.3
20260503195908 66 229 8.0 17.0 0.00 0.01 0.01 47 1015.6
20260503195408 66 287 9.0 16.0 0.00 0.01 0.01 51 1016.0
20260503194908 66 244 10.0 19.0 0.00 0.01 0.01 48 1016.1
20260503194408 66 273 9.0 19.0 0.00 0.01 0.01 50 1016.3
20260503193909 66 262 8.0 24.0 0.00 0.01 0.01 50 1016.3
20260503193409 66 207 10.0 20.0 0.00 0.01 0.01 48 1016.5
20260503192909 65 229 10.0 19.0 0.00 0.01 0.01 48 1016.5
20260503192409 65 275 9.0 18.0 0.00 0.01 0.01 48 1016.6
20260503191909 66 207 8.0 15.0 0.00 0.01 0.01 53 1016.8
20260503191409 65 280 8.0 18.0 0.00 0.01 0.01 50 1016.8
20260503190909 65 259 8.0 13.0 0.00 0.01 0.01 53 1016.9
20260503190409 64 272 11.0 16.0 0.00 0.01 0.01 48 1016.9
20260503185909 65 248 11.0 18.0 0.00 0.01 0.01 50 1017.0
20260503185409 65 254 10.0 18.0 0.00 0.01 0.01 50 1017.0
20260503184909 65 256 11.0 17.0 0.00 0.01 0.01 50 1017.0
20260503184409 64 243 11.0 19.0 0.00 0.01 0.01 52 1017.3
20260503183909 64 290 9.0 20.0 0.00 0.01 0.01 53 1017.6
20260503183409 65 273 8.0 15.0 0.00 0.01 0.01 51 1017.8
20260503182909 64 235 8.0 17.0 0.00 0.01 0.01 52 1017.9
20260503182409 64 269 8.0 13.0 0.00 0.01 0.01 53 1018.0
20260503181909 64 236 8.0 15.0 0.00 0.01 0.01 51 1018.2
20260503181409 64 230 8.0 12.0 0.00 0.01 0.01 53 1018.1
20260503180909 64 215 8.0 15.0 0.00 0.01 0.01 53 1018.3
20260503180409 64 243 10.0 16.0 0.00 0.01 0.01 53 1018.2
20260503175909 64 251 10.0 20.0 0.00 0.01 0.01 53 1018.4
20260503175409 64 244 10.0 15.0 0.00 0.01 0.01 52 1018.6
20260503174909 64 250 9.0 16.0 0.00 0.01 0.01 52 1018.7
20260503174409 63 251 8.0 14.0 0.00 0.01 0.01 52 1018.9
20260503173909 64 254 7.0 14.0 0.00 0.01 0.01 55 1019.1
20260503173409 63 315 6.0 15.0 0.00 0.01 0.01 52 1019.2
20260503172909 63 241 7.0 13.0 0.00 0.01 0.01 55 1019.2
20260503172409 63 288 8.0 12.0 0.00 0.01 0.01 54 1019.4
20260503171909 63 252 7.0 15.0 0.00 0.01 0.01 52 1019.4
20260503171409 63 260 7.0 15.0 0.00 0.01 0.01 54 1019.4
20260503170909 62 231 8.0 15.0 0.00 0.01 0.01 54 1019.6
20260503170409 62 258 7.0 16.0 0.00 0.01 0.01 52 1019.7
20260503150909 57 248 8.0 14.0 0.00 0.07 0.01 63 1020.9
20260503150409 56 263 8.0 15.0 0.00 0.07 0.01 63 1020.9
20260503131410 48 249 2.0 7.0 0.00 0.07 0.01 88 1021.0
20260503130910 47 254 2.0 7.0 0.00 0.07 0.01 90 1021.1
20260503130410 47 244 2.0 4.0 0.00 0.07 0.01 90 1021.0
20260503110410 39 260 0.0 1.0 0.00 0.07 0.01 97 1020.7
20260503090410 37 134 0.0 0.0 0.01 0.07 0.01 95 1020.7
20260503081411 38 135 0.0 0.0 0.01 0.07 0.01 96 1020.7
20260503080911 38 134 0.0 0.0 0.00 0.06 0.00 96 1020.7
20260503080411 38 135 0.0 0.0 0.00 0.06 0.00 96 1020.7
20260503072911 37 134 0.0 0.0 0.00 0.06 0.00 95 1020.6
20260503072411 37 134 0.0 0.0 0.00 0.06 0.00 95 1020.6
20260503071911 37 134 0.0 0.0 0.00 0.06 0.00 95 1020.6
20260503071411 37 134 0.0 0.0 0.00 0.06 0.00 95 1020.7
20260503070911 37 134 0.0 0.0 0.00 0.06 0.00 95 1020.8
20260503070411 37 134 0.0 0.0 0.00 0.06 0.00 94 1020.7